Location: ????????
(55.3939°N, 37.4780°E)
Time: 07:57:00
(UTC+00:00)

CZ-4C R/B - Pass Details

Date: 14 April 2026
Orbit: 408 x 500 km, 98.0° (Epoch: 13 May)

Event Time Altitude Azimuth Distance (km) Brightness Sun altitude
Rises 22:16:29 0° 14° (NNE) 2,386 8.0 -24.2°
Reaches altitude 10° 22:18:31 10° 14° (NNE) 1,507 6.6 -24.2°
Enters shadow 22:20:37 38° 9° (N) 652 4.2 -24.1°
